Location: Bakhuizen
(52.8696°N, 5.4575°E)
Time: 21:46:34
(UTC+00:00)

Cosmos 1777 Rocket - Pass Details

Date: 11 May 2021
Orbit: 758 x 776 km, 74.0° (Epoch: 23 June)

Event Time Altitude Azimuth Distance (km) Brightness Sun altitude
Rises 20:45:37 0° 195° (SSW) 3,205 6.9 -10.2°
Reaches altitude 10° 20:47:59 10° 193° (SSW) 2,284 6.1 -10.4°
Maximum altitude 20:53:07 67° 111° (ESE) 822 4.0 -10.9°
Drops below altitude 10° 20:58:17 10° 30° (NNE) 2,301 6.8 -11.4°
Sets 21:00:41 0° 28° (NNE) 3,233 7.6 -11.6°
